Starlink 34165

operational
NORAD ID: 63997 Int'l Des: 2025-101 Owner: SPXS Country: US Constellation: starlink
LEOCIRCULAR

Starlink 34165について

説明を読み込み中...

リアルタイム位置

3D地球を読み込み中...

次回通過

高度履歴

Altitude vs Time

uPlot chart will show altitude changes over time

軌道要素

1 63997U 25101D 26061.00572190 .00026286 00000-0 96051-3 0 9990
2 63997 42.9985 41.0453 0001553 190.1429 169.9391 15.27607279 45889
Epoch: Mar 2, 2026 • Age: 28 hours

現在のステータス

高度 492.5 km
速度 7.62 km/s
衛星直下点 -36.34°S, 47.38°E
打ち上げ日 May 14, 2025
運用期間 0.7 years
タイプ internet

技術仕様

分類 Payload
質量 575.00 kg
乾燥質量 530.00 kg
総質量 575.00 kg
長さ 0.30 m
直径 4.10 m
スパン 29.00 m
形状 Box + pan
製造者 SPXS
バスタイプ Starlink V2MO
フェーズステータス In Orbit
所有者/国 SPXS/US

大規模コンステレーション

Loading constellations...